Grants-Milan, NM

1:37 PM MST on December 12, 2017 (GMT -0700)
Grants-Milan Municipal

Weather History for KGNT - February, 2014

Change the Weather History Date:

Saturday, February 15, 2014

  Actual Average Record
Temperature  
Mean Temperature 44 °F -  
Max Temperature 68 °F 52 °F 68 °F (2014)
Min Temperature 19 °F 19 °F -8 °F (1964)
Degree Days  
Heating Degree Days 22    
Moisture  
Dew Point 13 °F    
Average Humidity 35    
Maximum Humidity 81    
Minimum Humidity 9    
Precipitation  
Precipitation 0.00 in - - ()
Sea Level Pressure  
Sea Level Pressure 30.21 in    
Wind  
Wind Speed 6 mph (WNW)    
Max Wind Speed 23 mph    
Max Gust Speed 33 mph    
Visibility 10 miles    
Events      
Averages and records for this station are not official NWS values.
T = Trace of Precipitation, MM = Missing Value Source: NWS Daily Summary

Daily Weather History Graph

Daily Weather History Graph

Search for Another Location

Airport or City:

Trip Planner

Search our weather history database for the weather conditions in past years. The results will help you decide how hot, cold, wet, or windy it might be!

Date:

Astronomy

Feb. 15, 2014 Rise Set
Actual Time 6:57 AM MST 5:54 PM MST
Civil Twilight 6:31 AM MST 6:20 PM MST
Nautical Twilight 6:02 AM MST 6:49 PM MST
Astronomical Twilight 5:32 AM MST 7:19 PM MST
Moon 6:52 PM MST (2/15) 7:01 AM MST (2/15)
Length of Visible Light 11h 48m
Length of Day
10h 56m
Waxing Gibbous, 99% of the Moon is Illuminated
Feb 15
Waxing Gibbous
Feb 22
Last Quarter
Mar 1
New
Mar 8
First Quarter
Mar 16
Full

Hourly Weather History & Observations

Time (MST) Temp. Windchill Dew Point Humidity Pressure Visibility Wind Dir Wind Speed Gust Speed Precip Events Conditions
12:15 AM 36.0 °F 30.3 °F 21.9 °F 57% 30.22 in 10.0 mi WNW 6.9 mph - N/A   Clear
12:35 AM 37.0 °F 31.0 °F 21.7 °F 54% 30.22 in 10.0 mi WNW 8.1 mph - N/A   Clear
12:55 AM 37.4 °F 31.4 °F 21.4 °F 52% 30.22 in 10.0 mi WNW 8.1 mph - N/A   Clear
1:15 AM 37.4 °F 32.8 °F 20.8 °F 51% 30.23 in 10.0 mi WNW 5.8 mph - N/A   Clear
1:35 AM 37.8 °F 31.8 °F 20.5 °F 50% 30.22 in 10.0 mi WNW 8.1 mph - N/A   Clear
1:55 AM 38.1 °F 34.6 °F 20.1 °F 48% 30.22 in 10.0 mi WNW 4.6 mph - N/A   Clear
2:15 AM 36.7 °F 34.1 °F 19.4 °F 50% 30.22 in 10.0 mi WNW 3.5 mph - N/A   Clear
2:35 AM 36.1 °F 32.3 °F 19.4 °F 51% 30.21 in 10.0 mi WNW 4.6 mph - N/A   Clear
2:55 AM 35.4 °F 31.5 °F 19.0 °F 51% 30.21 in 10.0 mi NW 4.6 mph - N/A   Clear
3:15 AM 33.3 °F 30.2 °F 18.5 °F 55% 30.21 in 10.0 mi NW 3.5 mph - N/A   Clear
3:35 AM 32.0 °F 25.6 °F 18.3 °F 57% 30.21 in 10.0 mi NW 6.9 mph - N/A   Clear
3:55 AM 30.7 °F 24.9 °F 18.5 °F 60% 30.21 in 10.0 mi NNW 5.8 mph - N/A   Clear
4:15 AM 30.2 °F 25.4 °F 18.0 °F 60% 30.21 in 10.0 mi East 4.6 mph - N/A   Clear
4:35 AM 25.7 °F - 17.6 °F 71% 30.23 in 10.0 mi Calm Calm - N/A   Clear
4:55 AM 24.4 °F - 15.3 °F 68% 30.23 in 10.0 mi Calm Calm - N/A   Clear
5:15 AM 23.0 °F - 16.5 °F 76% 30.23 in 10.0 mi Calm Calm - N/A   Clear
5:35 AM 20.7 °F - 14.5 °F 77% 30.23 in 10.0 mi Calm Calm - N/A   Clear
5:55 AM 25.9 °F - 18.3 °F 73% 30.23 in 10.0 mi Calm Calm - N/A   Clear
6:15 AM 22.1 °F - 15.6 °F 76% 30.23 in 10.0 mi Calm Calm - N/A   Clear
6:35 AM 21.4 °F - 15.6 °F 78% 30.24 in 10.0 mi Calm Calm - N/A   Clear
6:55 AM 19.8 °F 13.2 °F 14.2 °F 79% 30.24 in 10.0 mi NNW 4.6 mph - N/A   Clear
7:15 AM 19.2 °F 12.5 °F 14.2 °F 81% 30.24 in 10.0 mi NW 4.6 mph - N/A   Clear
7:35 AM 26.4 °F - 18.9 °F 73% 30.24 in 10.0 mi Calm Calm - N/A   Clear
7:55 AM 30.2 °F - 18.5 °F 62% 30.24 in 10.0 mi Calm Calm - N/A   Clear
8:15 AM 32.4 °F - 18.7 °F 57% 30.26 in 10.0 mi Calm Calm - N/A   Clear
8:35 AM 35.6 °F 32.8 °F 19.4 °F 52% 30.26 in 10.0 mi NNW 3.5 mph - N/A   Clear
8:55 AM 38.1 °F - 19.2 °F 47% 30.26 in 10.0 mi Calm Calm - N/A   Clear
9:15 AM 42.6 °F - 19.0 °F 39% 30.26 in 10.0 mi Calm Calm - N/A   Clear
9:35 AM 45.9 °F - 19.2 °F 35% 30.26 in 10.0 mi Calm Calm - N/A   Clear
9:55 AM 48.9 °F - 19.4 °F 31% 30.26 in 10.0 mi Calm Calm - N/A   Clear
10:15 AM 51.3 °F - 19.0 °F 28% 30.25 in 10.0 mi Calm Calm - N/A   Clear
10:35 AM 53.6 °F - 18.5 °F 25% 30.25 in 10.0 mi Calm Calm - N/A   Clear
10:55 AM 55.2 °F - 17.6 °F 23% 30.25 in 10.0 mi Calm Calm - N/A   Clear
11:15 AM 55.9 °F - 17.4 °F 22% 30.24 in 10.0 mi Calm Calm - N/A   Clear
11:35 AM 58.1 °F - 16.5 °F 20% 30.24 in 10.0 mi Calm Calm - N/A   Clear
11:55 AM 60.3 °F - 16.5 °F 18% 30.23 in 10.0 mi Calm Calm - N/A   Clear
12:15 PM 61.3 °F - 16.3 °F 17% 30.21 in 10.0 mi Calm Calm - N/A   Clear
12:35 PM 65.5 °F - 12.6 °F 13% 30.20 in 10.0 mi West 10.4 mph 17.3 mph N/A   Clear
12:55 PM 66.6 °F - 13.1 °F 13% 30.19 in 10.0 mi West 10.4 mph 18.4 mph N/A   Clear
1:15 PM 65.7 °F - 13.1 °F 13% 30.18 in 10.0 mi West 11.5 mph 17.3 mph N/A   Clear
1:35 PM 67.3 °F - 13.6 °F 13% 30.18 in 10.0 mi West 13.8 mph 21.9 mph N/A   Clear
1:55 PM 68.4 °F - 12.4 °F 11% 30.17 in 10.0 mi West 16.1 mph 20.7 mph N/A   Clear
2:15 PM 68.4 °F - 9.7 °F 10% 30.16 in 10.0 mi West 16.1 mph 23.0 mph N/A   Clear
2:35 PM 65.7 °F - 11.1 °F 12% 30.16 in 10.0 mi West 13.8 mph 23.0 mph N/A   Clear
2:55 PM 64.8 °F - 12.0 °F 13% 30.17 in 10.0 mi West 15.0 mph 20.7 mph N/A   Clear
3:15 PM 66.9 °F - 11.1 °F 11% 30.16 in 10.0 mi West 11.5 mph 25.3 mph N/A   Clear
3:35 PM 67.5 °F - 5.0 °F 9% 30.16 in 10.0 mi West 23.0 mph 29.9 mph N/A   Clear
3:55 PM 67.5 °F - 6.1 °F 9% 30.16 in 10.0 mi WNW 17.3 mph 24.2 mph N/A   Clear
4:15 PM 67.5 °F - 5.2 °F 9% 30.15 in 10.0 mi WNW 18.4 mph 33.4 mph N/A   Clear
4:35 PM 66.2 °F - 7.0 °F 10% 30.16 in 10.0 mi West 13.8 mph 19.6 mph N/A   Clear
4:55 PM 63.9 °F - 4.3 °F 9% 30.17 in 10.0 mi West 15.0 mph 24.2 mph N/A   Clear
5:15 PM 61.9 °F - 4.1 °F 10% 30.17 in 10.0 mi WNW 10.4 mph - N/A   Clear
5:35 PM 58.6 °F - 4.6 °F 12% 30.17 in 10.0 mi NW 11.5 mph 16.1 mph N/A   Clear
5:55 PM 54.7 °F - 4.5 °F 13% 30.17 in 10.0 mi NW 10.4 mph - N/A   Clear
6:15 PM 52.0 °F - 5.5 °F 15% 30.17 in 10.0 mi West 8.1 mph - N/A   Clear
6:35 PM 49.8 °F - 6.3 °F 17% 30.18 in 10.0 mi West 8.1 mph - N/A   Clear
6:55 PM 51.8 °F - 5.2 °F 15% 30.18 in 10.0 mi West 6.9 mph - N/A   Clear
7:15 PM 48.7 °F - 4.6 °F 17% 30.18 in 10.0 mi Calm Calm - N/A   Clear
7:35 PM 45.7 °F - 6.6 °F 20% 30.18 in 10.0 mi Calm Calm - N/A   Clear
7:55 PM 44.6 °F - 8.4 °F 23% 30.18 in 10.0 mi Calm Calm - N/A   Clear
8:15 PM 38.8 °F - 9.0 °F 29% 30.18 in 10.0 mi Calm Calm - N/A   Clear
8:35 PM 37.4 °F 34.9 °F 8.6 °F 30% 30.18 in 10.0 mi SW 3.5 mph - N/A   Clear
8:55 PM 39.7 °F - 8.6 °F 28% 30.19 in 10.0 mi Calm Calm - N/A   Clear
9:15 PM 40.8 °F 38.8 °F 8.8 °F 27% 30.20 in 10.0 mi NW 3.5 mph - N/A   Clear
9:35 PM 37.2 °F 31.9 °F 5.9 °F 27% 30.20 in 10.0 mi NW 6.9 mph - N/A   Clear
9:55 PM 43.2 °F 39.7 °F 9.1 °F 25% 30.20 in 10.0 mi NW 5.8 mph - N/A   Clear
10:15 PM 46.8 °F - 10.4 °F 23% 30.20 in 10.0 mi West 9.2 mph - N/A   Clear
10:35 PM 46.9 °F - 10.4 °F 23% 30.20 in 10.0 mi West 6.9 mph - N/A   Clear
10:55 PM 46.8 °F - 10.4 °F 23% 30.20 in 10.0 mi WSW 11.5 mph - N/A   Clear
11:15 PM 46.8 °F - 10.4 °F 23% 30.20 in 10.0 mi WSW 11.5 mph - N/A   Clear
11:35 PM 37.9 °F 33.5 °F 9.0 °F 30% 30.20 in 10.0 mi WNW 5.8 mph - N/A   Clear
11:55 PM 38.3 °F 33.9 °F 9.5 °F 31% 30.19 in 10.0 mi NW 5.8 mph - N/A   Clear